DW6201 Weather Reports


time (UTC)temp
C
wind
direction
speed
KPH
gust
KPH
rain 1hr
cm
rain 24hr
cm
rain mn
cm
humidity
%
barometer
mb
20260502210501 18 268 3.2 3.2 0.00 0.00 0.00 33 1015.9
20260502210000 18 334 3.2 3.2 0.00 0.00 0.00 33 1015.9
20260502205500 18 0 0.0 0.0 0.00 0.00 0.00 32 1015.9
20260502205001 18 198 3.2 3.2 0.00 0.00 0.00 33 1015.9
20260502204500 18 186 6.4 6.4 0.00 0.00 0.00 33 1016.3
20260502204001 18 0 0.0 0.0 0.00 0.00 0.00 33 1016.3
20260502203501 18 310 1.6 1.6 0.00 0.00 0.00 32 1016.3
20260502203000 18 219 1.6 1.6 0.00 0.00 0.00 32 1016.3
20260502202500 17 0 0.0 0.0 0.00 0.00 0.00 33 1016.6
20260502202001 17 0 0.0 0.0 0.00 0.00 0.00 32 1016.6
20260502201500 17 312 3.2 3.2 0.00 0.00 0.00 32 1016.6
20260502201001 17 186 3.2 3.2 0.00 0.00 0.00 32 1016.6
20260502200500 17 196 6.4 6.4 0.00 0.00 0.00 34 1016.9
20260502200000 17 221 4.8 4.8 0.00 0.00 0.00 33 1016.9
20260502195500 17 144 1.6 1.6 0.00 0.00 0.00 33 1016.9
20260502195000 17 0 0.0 0.0 0.00 0.00 0.00 34 1017.3
20260502194500 17 191 4.8 4.8 0.00 0.00 0.00 32 1017.3
20260502194000 17 196 3.2 3.2 0.00 0.00 0.00 33 1017.3
20260502193501 17 209 3.2 3.2 0.00 0.00 0.00 34 1017.3
20260502193000 17 0 0.0 0.0 0.00 0.00 0.00 34 1017.6
20260502192500 17 0 0.0 0.0 0.00 0.00 0.00 35 1017.6
20260502192000 17 271 4.8 4.8 0.00 0.00 0.00 34 1017.6
20260502191500 17 0 0.0 0.0 0.00 0.00 0.00 35 1017.9
20260502191000 16 242 1.6 1.6 0.00 0.00 0.00 35 1017.9
20260502190500 16 304 4.8 4.8 0.00 0.00 0.00 35 1017.9
20260502190001 16 0 0.0 0.0 0.00 0.00 0.00 34 1017.9
20260502185500 16 182 1.6 1.6 0.00 0.00 0.00 34 1017.9
20260502185000 16 245 1.6 1.6 0.00 0.00 0.00 35 1018.3
20260502184500 16 0 0.0 0.0 0.00 0.00 0.00 36 1018.3
20260502184000 16 221 1.6 1.6 0.00 0.00 0.00 36 1018.3
20260502183500 15 319 3.2 3.2 0.00 0.00 0.00 35 1018.3
20260502183000 15 0 0.0 0.0 0.00 0.00 0.00 37 1018.3
20260502182500 15 184 1.6 1.6 0.00 0.00 0.00 35 1018.3
20260502182000 15 252 3.2 3.2 0.00 0.00 0.00 37 1018.6
20260502181500 15 333 6.4 6.4 0.00 0.00 0.00 35 1018.6
20260502181000 15 326 3.2 3.2 0.00 0.00 0.00 35 1019.0
20260502180500 15 0 0.0 0.0 0.00 0.00 0.00 36 1019.0
20260502170500 14 329 1.6 1.6 0.00 0.00 0.00 37 1019.6
20260502164000 13 190 1.6 1.6 0.00 0.00 0.00 38 1020.0
20260502163500 13 0 0.0 0.0 0.00 0.00 0.00 38 1020.0
20260502163000 13 195 1.6 1.6 0.00 0.00 0.00 39 1020.0
20260502162500 13 186 4.8 4.8 0.00 0.00 0.00 38 1020.0
20260502162000 13 259 6.4 6.4 0.00 0.00 0.00 39 1020.3
20260502161500 12 202 4.8 4.8 0.00 0.00 0.00 39 1020.3
20260502161000 12 261 1.6 1.6 0.00 0.00 0.00 39 1020.3
20260502160500 12 273 4.8 4.8 0.00 0.00 0.00 41 1020.3
20260502152000 11 313 6.4 6.4 0.00 0.00 0.00 44 1020.7
20260502151500 11 311 4.8 4.8 0.00 0.00 0.00 45 1020.7
20260502151000 11 319 1.6 1.6 0.00 0.00 0.00 45 1020.7
20260502150501 11 257 1.6 1.6 0.00 0.00 0.00 47 1020.7
20260502130501 6 275 4.8 4.8 0.00 0.00 0.00 72 1021.3
20260502123500 2 0 0.0 0.0 0.00 0.00 0.00 77 1021.3
20260502123001 2 0 0.0 0.0 0.00 0.00 0.00 78 1021.3
20260502122500 2 0 0.0 0.0 0.00 0.00 0.00 78 1021.3
20260502122000 1 0 0.0 0.0 0.00 0.00 0.00 78 1021.3
20260502121500 1 0 0.0 0.0 0.00 0.00 0.00 79 1021.3
20260502121000 1 0 0.0 0.0 0.00 0.00 0.00 79 1021.0
20260502120501 0 0 0.0 0.0 0.00 0.00 0.00 79 1021.3
20260502115500 0 0 0.0 0.0 0.00 0.00 0.00 79 1021.3
20260502115001 0 0 0.0 0.0 0.00 0.00 0.00 79 1021.0
20260502114501 0 0 0.0 0.0 0.00 0.00 0.00 79 1021.0
20260502114001 0 0 0.0 0.0 0.00 0.00 0.00 79 1021.0
20260502113500 0 0 0.0 0.0 0.00 0.00 0.00 79 1021.0
20260502113000 0 0 0.0 0.0 0.00 0.00 0.00 79 1021.0
20260502112500 0 0 0.0 0.0 0.00 0.00 0.00 78 1021.0
20260502112000 0 0 0.0 0.0 0.00 0.00 0.00 78 1021.0
20260502111500 0 0 0.0 0.0 0.00 0.00 0.00 78 1021.0
20260502111000 0 0 0.0 0.0 0.00 0.00 0.00 78 1021.0
20260502110500 0 0 0.0 0.0 0.00 0.00 0.00 78 1021.0
20260502110000 0 0 0.0 0.0 0.00 0.00 0.00 77 1021.0
20260502105501 0 0 0.0 0.0 0.00 0.00 0.00 77 1021.0
20260502105000 0 0 0.0 0.0 0.00 0.00 0.00 77 1021.0
20260502104500 0 0 0.0 0.0 0.00 0.00 0.00 77 1021.0
20260502104001 0 0 0.0 0.0 0.00 0.00 0.00 77 1021.0
20260502103500 0 0 0.0 0.0 0.00 0.00 0.00 76 1021.0
20260502103000 0 0 0.0 0.0 0.00 0.00 0.00 76 1021.0
20260502102500 0 0 0.0 0.0 0.00 0.00 0.00 76 1021.0
20260502102000 0 0 0.0 0.0 0.00 0.00 0.00 77 1021.0
20260502101500 0 0 0.0 0.0 0.00 0.00 0.00 77 1021.0
20260502101001 0 0 0.0 0.0 0.00 0.00 0.00 77 1021.0
20260502100500 0 0 0.0 0.0 0.00 0.00 0.00 76 1021.0
20260502091500 0 0 0.0 0.0 0.00 0.00 0.00 75 1021.0
20260502091001 0 0 0.0 0.0 0.00 0.00 0.00 75 1021.0
20260502090500 0 0 0.0 0.0 0.00 0.00 0.00 75 1021.0
20260502071501 1 0 0.0 0.0 0.00 0.00 0.00 72 1021.0
20260502071000 1 0 0.0 0.0 0.00 0.00 0.00 72 1021.0
20260502070500 1 0 0.0 0.0 0.00 0.00 0.00 72 1021.0
20260502070001 1 0 0.0 0.0 0.00 0.00 0.00 72 1021.0
20260502065501 1 0 0.0 0.0 0.00 0.00 0.00 71 1021.3
20260502065001 1 0 0.0 0.0 0.00 0.00 0.00 71 1021.3
20260502064500 1 0 0.0 0.0 0.00 0.00 0.00 71 1021.3
20260502064000 1 0 0.0 0.0 0.00 0.00 0.00 71 1021.3
20260502063500 1 0 0.0 0.0 0.00 0.00 0.00 70 1021.3
20260502063000 1 0 0.0 0.0 0.00 0.00 0.00 70 1021.3
20260502062500 1 0 0.0 0.0 0.00 0.00 0.00 70 1021.3
20260502062000 1 0 0.0 0.0 0.00 0.00 0.00 70 1021.3
20260502061500 1 0 0.0 0.0 0.00 0.00 0.00 70 1021.3
20260502061000 1 0 0.0 0.0 0.00 0.00 0.00 69 1021.3
20260502060501 2 0 0.0 0.0 0.00 0.00 0.00 69 1021.3
20260502060000 2 0 0.0 0.0 0.00 0.00 0.00 68 1021.3
20260502055501 2 0 0.0 0.0 0.00 0.00 0.00 68 1021.3
20260502054500 2 0 0.0 0.0 0.00 0.00 0.00 67 1021.3
20260502053500 2 0 0.0 0.0 0.00 0.00 0.00 66 1021.3
20260502053000 2 0 0.0 0.0 0.00 0.00 0.00 66 1021.3
20260502052500 2 0 0.0 0.0 0.00 0.00 0.00 66 1021.3
20260502052001 2 0 0.0 0.0 0.00 0.00 0.00 65 1021.3
20260502051500 2 0 0.0 0.0 0.00 0.00 0.00 65 1021.0
20260502051000 2 0 0.0 0.0 0.00 0.00 0.00 64 1021.0
20260502050501 3 0 0.0 0.0 0.00 0.00 0.00 64 1021.0
20260502050000 3 0 0.0 0.0 0.00 0.00 0.00 63 1021.0
20260502045000 3 0 0.0 0.0 0.00 0.00 0.00 63 1021.0
20260502044502 3 0 0.0 0.0 0.00 0.00 0.00 62 1021.0
20260502044000 3 0 0.0 0.0 0.00 0.00 0.00 62 1021.0
20260502043500 3 0 0.0 0.0 0.00 0.00 0.00 61 1021.0
20260502043000 3 0 0.0 0.0 0.00 0.00 0.00 60 1021.0
20260502042500 3 0 0.0 0.0 0.00 0.00 0.00 60 1021.0
20260502042000 3 0 0.0 0.0 0.00 0.00 0.00 59 1021.0
20260502041500 4 0 0.0 0.0 0.00 0.00 0.00 59 1021.0
20260502041000 4 0 0.0 0.0 0.00 0.00 0.00 58 1021.0
20260502040501 4 0 0.0 0.0 0.00 0.00 0.00 58 1021.0
20260502040001 4 0 0.0 0.0 0.00 0.00 0.00 58 1021.3
20260502035500 4 0 0.0 0.0 0.00 0.00 0.00 57 1021.3
20260502035000 5 0 0.0 0.0 0.00 0.00 0.00 57 1021.3
20260502034500 5 0 0.0 0.0 0.00 0.00 0.00 56 1021.3
20260502034001 5 0 0.0 0.0 0.00 0.00 0.00 55 1021.3
20260502033500 5 0 0.0 0.0 0.00 0.00 0.00 55 1021.3
20260502033001 5 0 0.0 0.0 0.00 0.00 0.00 54 1021.0
20260502032500 5 0 0.0 0.0 0.00 0.00 0.00 54 1021.0
20260502032000 5 0 0.0 0.0 0.00 0.00 0.00 53 1021.0
20260502031500 5 0 0.0 0.0 0.00 0.00 0.00 52 1021.0
20260502031000 6 0 0.0 0.0 0.00 0.00 0.00 51 1021.0
20260502030500 6 0 0.0 0.0 0.00 0.00 0.00 51 1021.0
20260502030000 6 0 0.0 0.0 0.00 0.00 0.00 50 1021.0
20260502025000 6 0 0.0 0.0 0.00 0.00 0.00 49 1021.0
20260502024500 6 0 0.0 0.0 0.00 0.00 0.00 48 1021.0
20260502024000 6 0 0.0 0.0 0.00 0.00 0.00 47 1021.0
20260502023500 7 0 0.0 0.0 0.00 0.00 0.00 46 1021.0
20260502023000 7 0 0.0 0.0 0.00 0.00 0.00 45 1021.0
20260502022500 7 0 0.0 0.0 0.00 0.00 0.00 44 1021.0
20260502022000 7 0 0.0 0.0 0.00 0.00 0.00 44 1021.0
20260502021500 7 0 0.0 0.0 0.00 0.00 0.00 44 1021.0
20260502021000 8 0 0.0 0.0 0.00 0.00 0.00 43 1020.7
20260502020500 8 0 0.0 0.0 0.00 0.00 0.00 43 1020.7
20260502020000 8 0 0.0 0.0 0.00 0.00 0.00 43 1020.7
20260502015500 8 0 0.0 0.0 0.00 0.00 0.00 42 1020.7
20260502015000 8 0 0.0 0.0 0.00 0.00 0.00 42 1020.7
20260502014500 8 0 0.0 0.0 0.00 0.00 0.00 42 1020.7
20260502014000 8 0 0.0 0.0 0.00 0.00 0.00 41 1020.7
20260502013500 8 0 0.0 0.0 0.00 0.00 0.00 41 1020.7
20260502013000 8 0 0.0 0.0 0.00 0.00 0.00 41 1020.7
20260502012500 8 0 0.0 0.0 0.00 0.00 0.00 40 1020.3
20260502012001 9 0 0.0 0.0 0.00 0.00 0.00 40 1020.3
20260502011501 9 0 0.0 0.0 0.00 0.00 0.00 40 1020.3
20260502011000 9 0 0.0 0.0 0.00 0.00 0.00 40 1020.3
20260502010500 9 0 0.0 0.0 0.00 0.00 0.00 40 1020.3
20260502010000 9 349 3.2 3.2 0.00 0.00 0.00 39 1020.3
20260502005500 9 0 0.0 0.0 0.00 0.00 0.00 39 1020.3
20260502005000 9 0 0.0 0.0 0.00 0.00 0.00 38 1020.3
20260502004500 9 349 1.6 1.6 0.00 0.00 0.00 38 1020.3
20260502004000 9 0 0.0 0.0 0.00 0.00 0.00 38 1020.3
20260502003500 10 26 1.6 1.6 0.00 0.00 0.00 38 1020.3
20260502003000 10 348 1.6 1.6 0.00 0.00 0.00 38 1020.3
20260502002500 10 0 0.0 0.0 0.00 0.00 0.00 38 1020.3
20260502002000 10 348 1.6 1.6 0.00 0.00 0.00 37 1020.0
20260502001500 10 0 0.0 0.0 0.00 0.00 0.00 37 1020.0
20260502001000 10 342 1.6 1.6 0.00 0.00 0.00 37 1020.3
20260502000500 10 42 3.2 3.2 0.00 0.00 0.00 38 1020.0
20260502000000 10 0 0.0 0.0 0.00 0.00 0.00 38 1020.0
20260501235500 10 67 3.2 3.2 0.00 0.00 0.00 39 1020.0
20260501235000 10 32 1.6 1.6 0.00 0.00 0.00 37 1020.0
20260501234500 10 329 3.2 3.2 0.00 0.00 0.00 37 1020.0
20260501234001 10 329 1.6 1.6 0.00 0.00 0.00 36 1020.0
20260501233500 10 0 0.0 0.0 0.00 0.00 0.00 36 1020.0
20260501233000 10 333 1.6 1.6 0.00 0.00 0.00 37 1020.0
20260501232500 10 0 0.0 0.0 0.00 0.00 0.00 37 1020.0
20260501232000 10 0 0.0 0.0 0.00 0.00 0.00 38 1020.0
20260501231500 10 45 3.2 3.2 0.00 0.00 0.00 38 1020.0
20260501231000 10 0 0.0 0.0 0.00 0.00 0.00 37 1020.0
20260501230500 10 0 0.0 0.0 0.00 0.00 0.00 37 1020.0
20260501230001 10 319 3.2 3.2 0.00 0.00 0.00 37 1020.0
20260501225500 10 319 1.6 1.6 0.00 0.00 0.00 37 1020.0
20260501225000 10 0 0.0 0.0 0.00 0.00 0.00 39 1020.0
20260501224500 10 0 0.0 0.0 0.00 0.00 0.00 37 1020.0
20260501224000 10 321 3.2 3.2 0.00 0.00 0.00 37 1020.0
20260501223500 10 0 0.0 0.0 0.00 0.00 0.00 39 1020.0
20260501223001 10 0 0.0 0.0 0.00 0.00 0.00 40 1020.0
20260501222500 10 338 4.8 4.8 0.00 0.00 0.00 39 1020.0
20260501222000 10 342 1.6 1.6 0.00 0.00 0.00 38 1020.0
20260501221500 10 58 1.6 1.6 0.00 0.00 0.00 38 1020.0
20260501221000 10 0 0.0 0.0 0.00 0.00 0.00 39 1020.0
20260501220501 10 0 0.0 0.0 0.00 0.00 0.00 37 1020.0
20260501220001 10 0 0.0 0.0 0.00 0.00 0.00 37 1020.0
20260501215501 10 318 3.2 3.2 0.00 0.00 0.00 37 1020.0
20260501215000 10 304 1.6 1.6 0.00 0.00 0.00 36 1020.0
20260501214501 10 11 3.2 3.2 0.00 0.00 0.00 37 1020.0
20260501214000 10 0 0.0 0.0 0.00 0.00 0.00 37 1020.0
20260501213501 10 0 0.0 0.0 0.00 0.00 0.00 36 1020.0
20260501213000 11 323 6.4 6.4 0.00 0.00 0.00 37 1020.0
20260501212500 11 0 0.0 0.0 0.00 0.00 0.00 38 1020.0
20260501212000 10 317 1.6 1.6 0.00 0.00 0.00 38 1020.0
20260501211500 10 328 3.2 3.2 0.00 0.00 0.00 38 1020.0
20260501211000 10 0 0.0 0.0 0.00 0.00 0.00 36 1020.0